Location: Logan
(41.7360°N, 111.8340°W)
Time: 08:22:35
(UTC-07:00)

Daily predictions for brighter satellites

Satellite Brightness Start Highest point End
(mag) Time Altitude Azimuth Time Altitude Azimuth Time Altitude Azimuth
Cosmos 1484 Rocket 4.3 17:27:58 10° ESE 17:30:13 15° ENE 17:32:28 10° NNE
Cosmos 375 4.4 17:27:17 10° NNW 17:31:48 69° NE 17:35:37 10° SE
CSL-04 Rocket 4.4 17:26:48 10° S 17:32:13 62° WSW 17:37:43 10° NNW
Cosmos 2366 rocket 4.0 17:26:14 10° N 17:32:35 72° E 17:38:51 10° SSE
Cosmos 1975 3.1 17:31:15 10° N 17:35:12 47° E 17:39:06 10° SSE
Cosmos 1238 Rocket 2.1 17:35:01 10° S 17:37:57 89° ESE 17:41:10 10° N
PAYLOAD A 4.0 17:34:11 10° SSE 17:39:02 88° ENE 17:44:08 10° NNW
USA 116 4.5 17:35:21 10° NNE 17:40:41 63° E 17:45:40 10° S
Cosmos 2218 Rocket 4.1 17:36:46 10° N 17:43:03 84° W 17:49:14 10° S
CZ-4 R/B 1.4 17:38:55 10° SSE 17:43:05 79° ENE 17:47:12 10° N
Abrixas 2.5 17:40:28 10° NW 17:43:23 58° NNE 17:46:19 10° ESE
Cosmos 1544 Rocket 4.1 17:40:01 10° NNW 17:44:27 66° W 17:48:52 10° S
Cosmos 1844 Rocket 4.1 17:41:59 10° SW 17:47:07 36° WNW 17:52:18 10° N
USA 234 3.3 17:41:07 10° NE 17:47:40 75° SE 17:54:11 10° SW
CRYOSAT 2 4.5 17:43:36 10° N 17:48:32 83° W 17:53:25 10° S
COSMO-SKYMED 1 3.6 17:47:39 10° NE 17:51:17 25° E 17:54:53 10° SSE
Cosmos 1812 3.1 17:47:43 10° SSW 17:51:33 67° W 17:55:24 10° N
MOS 1 4.3 17:47:17 10° SSE 17:52:56 83° ENE 17:58:37 10° NNW
MSX 3.9 17:47:33 10° SSE 17:53:08 55° ENE 17:58:43 10° N
Meteor 1-12 Rocket 4.4 17:48:36 10° N 17:54:27 85° W 18:00:22 10° S
CZ-2C R/B 2.5 17:49:34 10° SSE 17:54:35 83° ENE 17:59:47 10° N
CORIOLIS 4.1 17:50:23 10° SSE 17:55:46 74° ENE 18:01:09 10° N
BREEZE-M DEB (TANK) 4.4 17:52:59 10° WNW 18:00:15 34° NNW 18:03:26 15° NE
NOSS 3-4 (A) 4.2 17:54:07 10° NNW 18:00:39 41° NE 18:07:32 10° ESE
NOSS 3-4 (C) 4.2 17:54:13 10° NNW 18:00:45 41° NE 18:07:37 10° ESE
Cosmos 921 Rocket 3.2 17:57:31 10° S 18:01:37 49° ESE 18:05:48 10° NNE
Cosmos 1025 Rocket 4.0 17:58:39 10° SE 18:02:17 26° E 18:05:09 14° NE
SJ-12 4.3 17:59:53 10° S 18:03:58 70° WSW 18:08:06 10° NNW
Cosmos 1821 Rocket 4.3 18:00:18 10° N 18:06:00 40° ENE 18:11:41 10° SE
Cosmos 1536 Rocket 4.1 18:01:55 10° SSW 18:06:21 62° W 18:10:49 10° N
NOSS 3-3 (A) 4.5 18:01:18 10° SW 18:07:26 61° NW 18:14:06 10° NNE
NOSS 3-3 (C) 4.5 18:01:24 10° SW 18:07:32 61° NW 18:14:12 10° NNE
Timation 2 Rocket 4.1 18:01:16 10° NNW 18:08:09 78° ENE 18:15:03 10° SSE
BREEZE M DEB (TANK) 3.4 18:08:11 10° NW 18:11:25 44° NNE 18:18:05 15° E
YAOGAN 1 3.0 18:11:20 10° S 18:15:38 65° W 18:19:57 10° NNW
COSMOS 2487 3.3 18:13:27 10° NNW 18:16:58 54° WSW 18:20:27 10° S
Cosmos 1371 Rocket 4.2 18:14:36 10° S 18:19:45 50° ESE 18:23:47 16° NE
Cosmos 2297 3.7 18:15:59 10° SSW 18:21:37 84° WNW 18:27:15 10° NNE
SPOT 3 Rocket 4.4 18:18:25 10° S 18:23:28 54° W 18:28:32 10° NNW
Meteor 2-21 Rocket 4.4 18:18:58 10° N 18:25:12 84° E 18:31:20 10° S
Meteor 2-16 Rocket 4.3 18:20:04 10° N 18:26:10 70° E 18:32:13 10° SSE
GRACE-2 3.7 18:23:28 10° S 18:26:14 83° E 18:27:49 23° N
GRACE-1 3.7 18:23:53 10° S 18:26:40 86° E 18:28:19 22° N
Cosmos 1346 Rocket 3.6 18:23:12 10° SSW 18:27:00 51° WNW 18:30:48 10° N
SL-8 R/B 4.4 18:23:12 10° W 18:27:45 42° NNW 18:29:59 26° NE
Cosmos 1666 3.1 18:25:09 10° N 18:28:50 40° ENE 18:32:30 10° SSE
Cosmos 2278 Rocket 3.6 18:26:08 10° WSW 18:31:17 35° WNW 18:36:27 10° N
SMAP 4.4 18:26:55 10° S 18:31:20 42° W 18:35:45 10° NNW
Nadezhda 3 Rocket 4.1 18:26:55 10° S 18:33:07 82° W 18:39:27 10° N
ISS -1.1 18:31:24 10° NW 18:33:21 15° N 18:33:23 15° N
BREEZE-M DEB (TANK) 3.7 18:33:50 10° NW 18:35:15 19° N 18:35:15 19° N
SKYMED 2 3.5 18:35:39 13° NNE 18:39:30 86° ESE 18:43:51 10° SSW
BREEZE M DEB (TANK) 2.5 18:32:49 10° WSW 18:40:54 89° NW 18:41:52 46° ENE
Delta 2 Rocket 4.4 18:38:01 10° WSW 18:41:23 33° S 18:42:44 26° SE
GEOS 3 Rocket 3.9 18:41:16 34° E 18:42:38 42° NE 18:47:27 10° NNW
Tiangong 1 1.2 18:42:58 10° W 18:45:43 65° NW 18:45:43 65° NW
CZ-3B DEB 3.5 18:43:26 10° W 18:47:54 41° NNW 18:53:54 21° NE
Cosmos 1833 Rocket 3.0 18:43:30 10° NNW 18:49:07 66° WSW 18:54:40 10° S
Cosmos 1743 3.5 18:46:49 10° NNW 18:50:35 51° W 18:54:19 10° S
Cosmos 1190 Rocket 3.9 18:46:00 10° NNW 18:51:12 60° ENE 18:56:20 10° SSE
Cosmos 1727 Rocket 4.2 18:48:56 10° SSE 18:54:43 43° E 18:55:42 40° ENE
Cosmos 1892 Rocket 3.6 18:50:37 10° S 18:54:29 53° ESE 18:54:29 53° ESE
Cosmos 2082 Rocket 3.1 18:51:00 10° NW 18:56:27 49° WSW 19:01:52 10° S
Meteor 1-28 Rocket 3.0 18:56:17 79° ENE 18:56:27 82° ESE 19:00:13 10° S
NOSS 2-1 (D) 4.3 18:55:35 10° WSW 18:59:17 44° NW 19:00:41 32° N
NOSS 2-1 (C) 4.3 18:56:14 10° WSW 18:59:58 45° NW 19:01:21 33° N
Cosmos 1726 Rocket 3.4 18:57:26 10° N 19:01:54 74° E 19:06:21 10° SSE
Cosmos 1484 Rocket 4.3 19:00:57 10° SSW 19:04:24 35° W 19:07:51 10° NNW
Okean 2 3.3 19:02:31 10° S 19:06:21 75° SSE 19:06:21 75° SSE
BREEZE-M R/B 4.3 19:05:35 10° W 19:14:10 45° NNW 19:15:18 40° NNE
Cosmos 1934 Rocket 4.2 19:12:16 10° NNW 19:18:26 70° W 19:24:42 10° S
Cosmos 1606 Rocket 4.2 19:16:39 10° NNW 19:21:03 56° W 19:25:24 10° S
Meteor 1-15 Rocket 4.5 19:20:37 10° NNW 19:26:29 71° W 19:32:13 10° S
COSMO-SKYMED 1 4.4 19:24:15 13° NNW 19:27:24 29° WNW 19:31:07 10° SW
USA 234 4.1 19:28:02 30° NNE 19:30:22 40° NNW 19:36:21 10° W
Cosmos 1339 Rocket 4.4 19:25:29 10° S 19:30:38 63° SSE 19:30:38 63° SSE
Cosmos 2369 Rocket 3.2 19:29:25 10° S 19:32:38 34° S 19:32:38 34° S
Cosmos 407 Rocket 4.0 19:37:14 10° NNW 19:42:16 56° WSW 19:42:47 54° SW
FALCON 9 R/B 4.3 20:44:54 10° W 20:53:49 33° WSW 20:53:49 33° WSW
